Terminal Aerodrome Forecast
Issued by NWS Norman, OK

Home | Current Version | Previous Version | Text Only | Print | Product List | Glossary On
Versions: 1 2 3 4 5 6 7 8 9 10 11 12 13 14 15 16 17 18 19 20 21 22 23 24 25
000
FTUS44 KOUN 012320
TAFOKC
TAF
KOKC 012320Z 0200/0224 20013G22KT P6SM SCT250
     FM020200 20012KT P6SM SCT250
     FM021400 23012G18KT P6SM SCT050 BKN250 PROB30 0219/0223 5SM
      -TSRA BKN050CB=

USA.gov is the U.S. government's official web portal to all federal, state and local government web resources and services.